Location: Auttagershofen
(48.1940°N, 10.0237°E)
Time: 12:12:51
(UTC+00:00)

RUBIN 8/PSLV - Pass Details

Date: 18 January 2026
Orbit: 593 x 628 km, 98.1° (Epoch: 16 February)

Event Time Altitude Azimuth Distance (km) Brightness Sun altitude
Rises 05:13:23 0° 12° (NNE) 2,844 8.0 -17.9°
Reaches altitude 10° 05:15:33 10° 11° (N) 1,938 7.1 -17.5°
Maximum altitude 05:19:45 75° 287° (WNW) 622 4.3 -16.9°
Drops below altitude 10° 05:23:56 10° 202° (SSW) 1,932 7.0 -16.2°
Sets 05:26:05 0° 200° (SSW) 2,833 7.9 -15.8°
